FW9009 Weather Reports


Display with metric or nautical units.
time (UTC)temp
F
wind
direction
speed
MPH
gust
MPH
rain 1hr
in
rain 24hr
in
rain mn
in
humidity
%
barometer
mb
20260504100142 34 109 0.0 0.0 0.00 0.00 0.00 98 1014.4
20260504090105 35 108 0.0 0.0 0.00 0.00 0.00 98 1014.3
20260504081535 35 109 0.0 0.0 0.00 0.00 0.00 97 1014.3
20260504081031 35 109 0.0 0.0 0.00 0.00 0.00 97 1014.2
20260504080527 35 109 0.0 0.0 0.00 0.00 0.00 97 1014.2
20260504050340 37 109 0.0 0.0 0.00 0.00 0.00 94 1014.1
20260504045837 37 109 0.0 0.0 0.00 0.00 0.00 93 1014.3
20260504045332 38 109 0.0 0.0 0.00 0.00 0.00 93 1014.2
20260504044829 38 109 0.0 0.0 0.00 0.00 0.00 93 1014.3
20260504044326 38 109 0.0 0.0 0.00 0.00 0.00 93 1014.3
20260504043824 38 109 0.0 0.0 0.00 0.00 0.00 93 1014.3
20260504043321 38 109 0.0 0.0 0.00 0.00 0.00 93 1014.3
20260504042818 38 109 0.0 0.0 0.00 0.00 0.00 92 1014.3
20260504042314 38 109 0.0 0.0 0.00 0.00 0.00 92 1014.0
20260504041811 38 109 0.0 0.0 0.00 0.00 0.00 92 1014.0
20260504041307 39 109 0.0 0.0 0.00 0.00 0.00 92 1013.8
20260504040803 39 109 0.0 0.0 0.00 0.00 0.00 92 1013.9
20260504040301 39 109 0.0 0.0 0.00 0.00 0.00 92 1013.8
20260504035756 39 109 0.0 0.0 0.00 0.00 0.00 92 1013.8
20260504035254 39 109 0.0 0.0 0.00 0.00 0.00 91 1013.8
20260504034751 39 109 0.0 0.0 0.00 0.00 0.00 91 1013.9
20260504034249 39 109 0.0 0.0 0.00 0.00 0.00 91 1013.8
20260504033746 39 109 0.0 0.0 0.00 0.00 0.00 90 1013.7
20260504033243 39 109 0.0 0.0 0.00 0.00 0.00 90 1013.6
20260504032740 40 109 0.0 0.0 0.00 0.00 0.00 89 1013.6
20260504032237 40 109 0.0 0.0 0.00 0.00 0.00 89 1013.6
20260504031734 40 109 0.0 0.0 0.00 0.00 0.00 88 1013.7
20260504031231 40 109 0.0 0.0 0.00 0.00 0.00 88 1013.6
20260504030727 40 109 0.0 0.0 0.00 0.00 0.00 88 1013.7
20260504030225 41 109 0.0 0.0 0.00 0.00 0.00 87 1013.5
20260504025721 41 109 0.0 0.0 0.00 0.00 0.00 87 1013.6
20260504025218 41 109 0.0 0.0 0.00 0.00 0.00 86 1013.5
20260504024715 41 109 0.0 0.0 0.00 0.00 0.00 85 1013.6
20260504024211 41 109 0.0 0.0 0.00 0.00 0.00 84 1013.5
20260504023708 41 109 0.0 0.0 0.00 0.00 0.00 84 1013.5
20260504023204 42 109 0.0 0.0 0.00 0.00 0.00 84 1013.4
20260504022700 42 110 0.0 0.0 0.00 0.00 0.00 85 1013.5
20260504022156 42 109 0.0 0.0 0.00 0.00 0.00 84 1013.6
20260504021654 42 109 0.0 0.0 0.00 0.00 0.00 84 1013.5
20260504021150 42 109 0.0 0.0 0.00 0.00 0.00 84 1013.6
20260504020648 43 110 0.0 0.0 0.00 0.00 0.00 84 1013.6
20260504020143 43 110 0.0 0.0 0.00 0.00 0.00 82 1013.4
20260504015641 43 109 0.0 0.0 0.00 0.00 0.00 82 1013.5
20260504015137 44 109 0.0 0.0 0.00 0.00 0.00 82 1013.4
20260504014632 44 110 0.0 0.0 0.00 0.00 0.00 81 1013.6
20260504014130 44 110 0.0 0.0 0.00 0.00 0.00 82 1013.5
20260504013628 44 110 0.0 0.0 0.00 0.00 0.00 81 1013.4
20260504013124 45 110 0.0 0.0 0.00 0.00 0.00 81 1013.3
20260504012621 45 110 0.0 0.0 0.00 0.00 0.00 79 1013.2
20260504012120 46 110 0.0 1.0 0.00 0.00 0.00 77 1013.2
20260504011616 46 110 0.0 0.0 0.00 0.00 0.00 75 1013.3
20260504011112 46 110 0.0 0.0 0.00 0.00 0.00 75 1013.1
20260504010608 47 110 0.0 0.0 0.00 0.00 0.00 76 1012.9
20260504010104 47 110 0.0 0.0 0.00 0.00 0.00 74 1012.9
20260504005601 48 110 0.0 0.0 0.00 0.00 0.00 73 1012.7
20260504005058 48 110 0.0 0.0 0.00 0.00 0.00 71 1012.8
20260504004556 48 110 0.0 0.0 0.00 0.00 0.00 67 1012.8
20260504004053 49 110 0.0 0.0 0.00 0.00 0.00 66 1012.8
20260504003549 50 110 0.0 0.0 0.00 0.00 0.00 66 1012.7
20260504003046 51 110 0.0 0.0 0.00 0.00 0.00 64 1012.7
20260504002543 51 110 0.0 0.0 0.00 0.00 0.00 58 1012.4
20260504002041 52 110 0.0 0.0 0.00 0.00 0.00 58 1012.3
20260504001538 53 111 0.0 0.0 0.00 0.00 0.00 55 1012.2
20260504001034 53 110 0.0 0.0 0.00 0.00 0.00 53 1012.5
20260504000531 54 110 0.0 0.0 0.00 0.00 0.00 49 1012.3
20260504000029 54 109 0.0 0.0 0.00 0.00 0.00 48 1012.2
20260503235527 54 111 1.0 1.0 0.00 0.00 0.00 48 1012.3
20260503235023 55 106 0.0 0.0 0.00 0.00 0.00 51 1012.1
20260503234521 55 104 0.0 0.0 0.00 0.00 0.00 46 1012.1
20260503234019 56 87 0.0 1.0 0.00 0.00 0.00 44 1012.1
20260503233515 56 115 1.0 1.0 0.00 0.00 0.00 45 1012.1
20260503233011 57 79 0.0 0.0 0.00 0.00 0.00 45 1012.2
20260503232508 57 56 1.0 1.0 0.00 0.00 0.00 40 1012.0
20260503232006 57 103 0.0 0.0 0.00 0.00 0.00 43 1012.1
20260503231504 58 89 0.0 0.0 0.00 0.00 0.00 40 1012.1
20260503231000 58 79 0.0 1.0 0.00 0.00 0.00 37 1012.0
20260503230457 58 61 1.0 2.0 0.00 0.00 0.00 40 1011.9
20260503225954 58 42 1.0 1.0 0.00 0.00 0.00 40 1012.1
20260503225451 58 89 0.0 0.0 0.00 0.00 0.00 39 1012.0
20260503224946 58 35 0.0 1.0 0.00 0.00 0.00 43 1012.0
20260503224443 58 72 0.0 1.0 0.00 0.00 0.00 43 1011.9
20260503223941 59 51 1.0 1.0 0.00 0.00 0.00 37 1011.6
20260503223439 59 40 1.0 2.0 0.00 0.00 0.00 39 1011.7
20260503222934 59 79 0.0 0.0 0.00 0.00 0.00 38 1011.6
20260503222433 59 62 1.0 1.0 0.00 0.00 0.00 40 1011.7
20260503221931 59 91 0.0 0.0 0.00 0.00 0.00 36 1012.0
20260503221429 60 194 1.0 2.0 0.00 0.00 0.00 35 1011.9
20260503220926 60 63 1.0 1.0 0.00 0.00 0.00 35 1011.8
20260503220422 61 71 1.0 1.0 0.00 0.00 0.00 35 1012.0
20260503215919 61 18 2.0 2.0 0.00 0.00 0.00 33 1011.9
20260503215416 61 85 0.0 0.0 0.00 0.00 0.00 33 1012.1
20260503214914 61 65 0.0 1.0 0.00 0.00 0.00 35 1012.1
20260503214411 61 20 3.0 3.0 0.00 0.00 0.00 33 1012.1
20260503213908 60 36 3.0 3.0 0.00 0.00 0.00 34 1011.8
20260503213406 60 150 1.0 2.0 0.00 0.00 0.00 34 1012.0
20260503212902 61 33 1.0 1.0 0.00 0.00 0.00 35 1012.1
20260503212400 60 348 2.0 2.0 0.00 0.00 0.00 36 1012.0
20260503211857 60 338 2.0 2.0 0.00 0.00 0.00 33 1011.7
20260503211354 60 36 3.0 5.0 0.00 0.00 0.00 34 1011.9
20260503210849 61 60 1.0 1.0 0.00 0.00 0.00 36 1011.8
20260503210347 61 267 1.0 1.0 0.00 0.00 0.00 35 1011.9
20260503205841 61 200 1.0 2.0 0.00 0.00 0.00 33 1011.8
20260503205338 61 55 1.0 1.0 0.00 0.00 0.00 36 1011.8
20260503204834 60 276 2.0 2.0 0.00 0.00 0.00 34 1011.9
20260503204332 60 42 2.0 3.0 0.00 0.00 0.00 32 1012.2
20260503203829 60 283 3.0 3.0 0.00 0.00 0.00 32 1011.8
20260503203327 61 278 2.0 3.0 0.00 0.00 0.00 32 1012.1
20260503202823 60 5 1.0 2.0 0.00 0.00 0.00 34 1012.1
20260503202322 60 16 3.0 3.0 0.00 0.00 0.00 34 1012.3
20260503201820 61 43 3.0 5.0 0.00 0.00 0.00 34 1012.2
20260503201316 60 19 2.0 2.0 0.00 0.00 0.00 35 1012.2
20260503200814 59 39 1.0 2.0 0.00 0.00 0.00 37 1012.2
20260503200309 59 26 1.0 2.0 0.00 0.00 0.00 36 1012.4
20260503195807 60 32 2.0 2.0 0.00 0.00 0.00 34 1012.5
20260503195304 60 12 5.0 5.0 0.00 0.00 0.00 36 1012.4
20260503194801 60 12 2.0 5.0 0.00 0.00 0.00 36 1012.2
20260503194256 58 12 3.0 5.0 0.00 0.00 0.00 37 1012.4
20260503193753 58 53 0.0 0.0 0.00 0.00 0.00 38 1012.5
20260503193249 60 217 2.0 2.0 0.00 0.00 0.00 36 1012.7
20260503192745 59 305 2.0 3.0 0.00 0.00 0.00 35 1012.6
20260503192240 58 11 4.0 5.0 0.00 0.00 0.00 35 1012.8
20260503191737 58 12 3.0 3.0 0.00 0.00 0.00 36 1012.7
20260503191234 57 358 3.0 5.0 0.00 0.00 0.00 40 1012.8
20260503190731 58 92 1.0 1.0 0.00 0.00 0.00 38 1013.0
20260503190228 59 32 3.0 5.0 0.00 0.00 0.00 37 1012.9
20260503185725 59 55 0.0 1.0 0.00 0.00 0.00 40 1012.9
20260503185220 59 344 1.0 1.0 0.00 0.00 0.00 34 1012.9
20260503184715 59 343 2.0 3.0 0.00 0.00 0.00 36 1012.8
20260503184212 58 80 2.0 3.0 0.00 0.00 0.00 38 1012.9
20260503183708 59 151 3.0 5.0 0.00 0.00 0.00 35 1013.1
20260503183206 59 20 4.0 5.0 0.00 0.00 0.00 35 1012.9
20260503182704 58 96 0.0 1.0 0.00 0.00 0.00 37 1013.0
20260503182202 58 28 3.0 3.0 0.00 0.00 0.00 37 1012.9
20260503181658 58 98 0.0 0.0 0.00 0.00 0.00 37 1013.1
20260503181155 59 297 4.0 5.0 0.00 0.00 0.00 36 1013.3
20260503180652 57 64 1.0 1.0 0.00 0.00 0.00 37 1013.0
20260503180150 57 30 1.0 2.0 0.00 0.00 0.00 37 1013.0
20260503175646 56 45 1.0 2.0 0.00 0.00 0.00 38 1013.1
20260503175144 57 341 3.0 5.0 0.00 0.00 0.00 38 1013.3
20260503174640 57 39 3.0 5.0 0.00 0.00 0.00 40 1012.8
20260503174137 57 11 2.0 2.0 0.00 0.00 0.00 36 1013.2
20260503173632 56 25 1.0 2.0 0.00 0.00 0.00 40 1013.3
20260503173130 56 219 2.0 2.0 0.00 0.00 0.00 36 1013.3
20260503172626 56 52 0.0 1.0 0.00 0.00 0.00 38 1013.3
20260503172124 56 55 1.0 1.0 0.00 0.00 0.00 39 1013.4
20260503171620 55 322 2.0 5.0 0.00 0.00 0.00 41 1013.5
20260503171117 55 40 2.0 3.0 0.00 0.00 0.00 40 1013.5
20260503170614 55 335 1.0 1.0 0.00 0.00 0.00 41 1013.5
20260503170111 54 94 1.0 1.0 0.00 0.00 0.00 41 1013.5
20260503151006 51 35 4.0 5.0 0.00 0.00 0.00 46 1014.3
20260503150503 50 47 3.0 3.0 0.00 0.00 0.00 49 1014.1
20260503131355 48 51 0.0 1.0 0.00 0.00 0.00 57 1013.9
20260503130853 47 41 2.0 2.0 0.00 0.00 0.00 59 1013.8
20260503130350 48 13 4.0 5.0 0.00 0.00 0.00 58 1013.9
20260503110744 45 42 0.0 1.0 0.00 0.00 0.00 69 1013.0
20260503110241 44 61 0.0 0.0 0.00 0.00 0.00 69 1013.0